[Iaude] MPEC V58: 2023 VO1 [a=1.41,e=0.52,i=5.4,H=29.5]
    mpec at marsden.cfa.harvard.edu 
    mpec at marsden.cfa.harvard.edu
       
    Sun Nov  5 20:19:29 EST 2023
    
    
  
M.P.E.C. 2023-V58                              Issued 2023 November 6, 01:17 UT
     The Minor Planet Electronic Circulars contain information on unusual
         minor planets, routine data on comets and natural satellites,
         and occasional editorial announcements.  They are published
    on behalf of Division F of the International Astronomical Union by the
          Minor Planet Center, Smithsonian Astrophysical Observatory,
                          Cambridge, MA 02138, U.S.A.
			  
             Prepared using the Tamkin Foundation Computer Network
                              MPC at CFA.HARVARD.EDU
            URL https://www.minorplanetcenter.net/    ISSN 1523-6714
                                    2023 VO1                                    
Observations:
     K23V01O*1C2023 11 05.30082402 38 57.880+29 33 01.66         18.30GVEV058703
     K23V01O 1C2023 11 05.30620102 38 40.754+29 28 50.66         18.41GVEV058703
     K23V01O 1C2023 11 05.31158902 38 24.058+29 24 43.02         18.33GVEV058703
     K23V01O KB2023 11 05.34416 02 36 28.56 +28 56 35.9          18.2 GVEV058734
     K23V01O KB2023 11 05.34622 02 36 23.60 +28 55 11.8          18.5 GVEV058734
     K23V01O KB2023 11 05.34827 02 36 18.67 +28 53 48.2          18.8 GVEV058734
     K23V01O KC2023 11 05.41016702 34 24.190+28 20 54.35         18.58GVEV058I52
     K23V01O KC2023 11 05.41067602 34 23.160+28 20 37.86         18.14GVEV058I52
     K23V01O KC2023 11 05.41119002 34 22.220+28 20 20.72         18.59GVEV058I52
     K23V01O KC2023 11 05.41170702 34 21.248+28 20 03.08         18.48GVEV058I52
     K23V01O KC2023 11 05.86093 02 29 50.50 +26 10 25.5          20.5 GVEV058587
     K23V01O KC2023 11 05.86248 02 29 49.35 +26 10 11.9                VEV058587
     K23V01O KC2023 11 05.86403 02 29 48.20 +26 09 59.0                VEV058587
     K23V01O KC2023 11 05.86751802 29 45.69 +26 09 30.3                VEV058587
     K23V01O  C2023 11 05.92031 02 28 59.42 +26 01 56.8          19.7 GoEV058K88
     K23V01O  C2023 11 05.92229 02 28 58.11 +26 01 39.9          19.7 GoEV058K88
     K23V01O KC2023 11 06.00188602 28 11.71 +25 51 38.3          20.1 GVEV058L01
     K23V01O KC2023 11 06.00262702 28 11.27 +25 51 32.5          20.1 GVEV058L01
     K23V01O KC2023 11 06.00631702 28 09.18 +25 51 03.4          20.2 GVEV058L01
Observer details:
587 Sormano.  Observers F. Manca, A. Testa.  Measurer F. Manca.  0.5-m f/6.8
    reflector + CCD.
703 Catalina Sky Survey.  Observer G. J. Leonard.  Measurers E. C. Beshore, D.
    Fay, J. B. Fazekas, D. C. Fuls, A. R. Gibbs, A. D. Grauer, H. Groeller, J.
    K. Hogan, R. A. Kowalski, S. M. Larson, G. J. Leonard, D. Rankin, R. L.
    Seaman, F. C. Shelly, K. W. Wierzchos.  0.68-m Schmidt + 10K CCD.
734 Farpoint Observatory, Eskridge.  Observers D. Cromer, G. Hug, D. Goodin,
    R. Valentine.  Measurer G. Hug.  0.69-m f/3.54 reflector + CMO.
I52 Steward Observatory, Mt. Lemmon Station.  Observer R. A. Kowalski.
    Measurers E. C. Beshore, D. Fay, J. B. Fazekas, D. C. Fuls, A. R. Gibbs,
    A. D. Grauer, H. Groeller, J. K. Hogan, R. A. Kowalski, S. M. Larson, G.
    J. Leonard, D. Rankin, R. L. Seaman, F. C. Shelly, K. W. Wierzchos.  1.0-m
    prime focus + CCD.
K88 GINOP-KHK, Piszkesteto.  Observer K. Sarneczky.  0.60-m Schmidt + CCD.
L01 Visnjan Observatory, Tican.  Observer K. Korlevic.  1.0-m f/2.9 reflector
    + CCD.
Orbital elements:
2023 VO1                                                 Earth MOID = 0.0004 AU
Epoch 2023 Sept. 13.0 TT = JDT 2460200.5                Veres                   
M 359.66717              (2000.0)            P               Q                  
n   0.58953965     Peri.  273.69386     +0.70869983     +0.70271953             
a   1.4086206      Node    41.67590     -0.60408690     +0.65031830             
e   0.5228837      Incl.    5.40988     -0.36444968     +0.28856781             
P   1.67           H   29.57          G   0.15           U   7                  
Residuals in seconds of arc
231105 703  0.6+  0.3+    231105 I52  0.4-  0.3+    231105 K88  0.1-  0.1+
231105 703  0.0   0.1+    231105 I52  0.1-  0.2+    231105 K88  0.4+  0.3-
231105 703  0.1-  1.0-    231105 I52  0.2-  0.2-    231106 L01  0.2-  0.1+
231105 734  0.0   0.0     231105 587  0.5-  0.5+    231106 L01  0.3-  0.1+
231105 734  0.3+  0.1+    231105 587  0.7-  0.2-    231106 L01  0.4+  0.0
231105 734  0.0   0.2-    231105 587  0.8-  0.2-
231105 I52  0.5+  0.1-    231105 587  0.2-  0.0
Ephemeris:
2023 VO1                 a,e,i = 1.41, 0.52, 5                   q = 0.6721
Date    TT    R. A. (2000) Decl.     Delta      r    Elong.  Phase     V
2023 10 07    14 19 28.2 -23 15 12   0.2906  0.7569    28.4   141.0    33.3
...
2023 10 22    14 26 03.1 -24 51 19   0.1310  0.8712    17.3   160.2
...
2023 10 30    14 25 51.5 -24 54 20   0.05440 0.9400    11.7   167.6
...
2023 11 05    03 16 52.7 +40 15 32   0.0015270.9931   153.8    26.2    16.7
2023 11 06    02 28 28.7 +25 56 45   0.01073 1.0020   169.3    10.6    20.4
2023 11 07    02 25 22.7 +24 49 17   0.02000 1.0109   170.0     9.8    21.7
...
2023 11 13    02 22 59.4 +23 47 42   0.07605 1.0642   167.4    11.7    24.8
...
2023 11 21    02 23 51.3 +23 30 02   0.1532  1.1341   161.2    16.3    26.6
...
2023 12 06    02 30 01.0 +23 17 07   0.3098  1.2598   148.4    24.2    28.7
M. P. C. Staff               (C) Copyright 2023 MPC           M.P.E.C. 2023-V58
    
    
More information about the Iaude
mailing list